Regional Weather Roundup
Issued by NWS

Home | Current Version | Previous Version | Graphics & Text | Print | Product List | Glossary On
Versions: 1 2 3 4 5 6 7 8 9 10 11 12 13 14 15 16 17 18 19 20 21 22 23 24 25 26 27 28 29 30 31 32 33 34 35 36 37 38 39 40 41 42 43 44 45 46 47 48 49 50
000
ASUS45 KCYS 200610
RWRWY

WYOMING REGIONAL WEATHER ROUNDUP
NATIONAL WEATHER SERVICE CHEYENNE WY
1100 PM MST WED NOV 19 2014

NOTE:  "FAIR" INDICATES FEW OR NO CLOUDS BELOW 12,000 FEET
WITH NO SIGNIFICANT WEATHER AND/OR OBSTRUCTIONS TO VISIBILITY.

WYZ001-200700-
YELLOWSTONE NATIONAL PARK

CITY           SKY/WX    TMP DP  RH WIND       PRES   REMARKS
LK YELLOWSTONE   N/A     11   8  88 CALM      30.09F
6HR MIN TEMP:  10; 6HR MAX TEMP:  26;

W YELLOWSTONE  NOT AVBL

$$
WYZ002>013-054>058-071-098>099-200700-
NORTHERN WYOMING

CITY           SKY/WX    TMP DP  RH WIND       PRES   REMARKS
JACKSON        NOT AVBL
CODY           CLEAR     18  14  86 CALM      29.96S
GREYBULL       PTCLDY     3   1  91 CALM      30.04F
6HR MIN TEMP:   0; 6HR MAX TEMP:  13;

WORLAND        PTCLDY     4   0  83 CALM      30.02F
6HR MIN TEMP:   1; 6HR MAX TEMP:  14;

SHERIDAN       PTCLDY    18  13  80 CALM      29.97F
6HR MIN TEMP:  13; 6HR MAX TEMP:  22;

BUFFALO        CLEAR     27  11  51 SW7       29.97F WCI  19
6HR MIN TEMP:  21; 6HR MAX TEMP:  28;

GILLETTE       PTCLDY    17  12  80 S12       29.98F WCI   4
6HR MIN TEMP:  12; 6HR MAX TEMP:  21;

HULETT         FAIR      19  16  86 S7        30.00F WCI  10
NEWCASTLE        N/A    N/A N/A N/A MISG        N/A

$$
WYZ014>020-022>026-101>103-200700-
CENTRAL WYOMING

CITY           SKY/WX    TMP DP  RH WIND       PRES   REMARKS
BIG PINEY      CLOUDY    19  13  77 E6        30.08F WCI  11
6HR MIN TEMP:  15; 6HR MAX TEMP:  27;

PINEDALE       PTCLDY    21  14  73 CALM      30.08S
DUBOIS         FAIR      27  12  54 NW13      30.02R WCI  16
LANDER         CLEAR     17  13  84 N3        29.99S
6HR MIN TEMP:  17; 6HR MAX TEMP:  28;

RIVERTON       CLEAR     12   8  84 CALM      30.01S
6HR MIN TEMP:  12; 6HR MAX TEMP:  24;

CASPER         PTCLDY    21  14  74 W10       29.99S WCI  10
6HR MIN TEMP:  19; 6HR MAX TEMP:  31;

DOUGLAS        PTCLDY    15  11  83 CALM      30.02S
6HR MIN TEMP:  14; 6HR MAX TEMP:  27;


$$
WYZ021-027>030-104>119-200700-
SOUTHERN WYOMING

CITY           SKY/WX    TMP DP  RH WIND       PRES   REMARKS
EVANSTON       CLOUDY    31  14  49 SW8       30.10F WCI  23
6HR MIN TEMP:  30; 6HR MAX TEMP:  34;

KEMMERER       CLOUDY    28  18  64 W6        30.10S WCI  22
FORT BRIDGER   FAIR      32  15  50 SW12      30.12S WCI  23
ROCK SPRINGS   MOCLDY    31  15  52 SW13      30.08F WCI  21
6HR MIN TEMP:  29; 6HR MAX TEMP:  37;

DIXON          FAIR      27  17  66 W3        30.13S
RAWLINS        MOCLDY    30  12  47 W5        30.05F WCI  25
6HR MIN TEMP:  29; 6HR MAX TEMP:  34;

SARATOGA       MOCLDY    21  10  63 E3        30.08S
LARAMIE        PTCLDY    25   6  44 W8        30.02S WCI  16
6HR MIN TEMP:  20; 6HR MAX TEMP:  33;

CHEYENNE       CLEAR     25  13  60 SW8       30.00F WCI  16
6HR MIN TEMP:  23; 6HR MAX TEMP:  36;

TORRINGTON     PTCLDY    21  16  81 CALM      30.03S
6HR MIN TEMP:  20; 6HR MAX TEMP:  31;

PINE BLUFFS    FAIR      18  12  79 W3        30.02S

$$


USA.gov is the U.S. government's official web portal to all federal, state and local government web resources and services.